Custer, SD

6:53 AM MST on December 03, 2016 (GMT -0700)
Custer County

Weather History for KCUT - November, 2011

Change the Weather History Date:

Thursday, November 3, 2011

  Actual Average Record
Temperature  
Mean Temperature 34 °F 37 °F  
Max Temperature 46 °F 48 °F 68 °F (1965)
Min Temperature 21 °F 26 °F -3 °F (1991)
Degree Days  
Heating Degree Days 31 28  
Month to date heating degree days 104 83  
Since 1 July heating degree days 1069 1262  
Cooling Degree Days 0 0  
Month to date cooling degree days 0 0  
Year to date cooling degree days 267 177  
Moisture  
Dew Point 3 °F    
Average Humidity 30    
Maximum Humidity 50    
Minimum Humidity 10    
Precipitation  
Precipitation 0.00 in 0.02 in 0.32 in (1973)
Month to date precipitation 0.20 0.07  
Year to date precipitation 20.22 18.03  
Sea Level Pressure  
Sea Level Pressure 30.10 in    
Wind  
Wind Speed 8 mph (SW)    
Max Wind Speed 17 mph    
Max Gust Speed 29 mph    
Visibility 10 miles    
Events      
T = Trace of Precipitation, MM = Missing Value Source: NWS Daily Summary

Daily Weather History Graph

Daily Weather History Graph

Search for Another Location

Airport or City:

Trip Planner

Search our weather history database for the weather conditions in past years. The results will help you decide how hot, cold, wet, or windy it might be!

Date:

Astronomy

Nov. 03, 2011 Rise Set
Actual Time 7:32 AM MDT 5:42 PM MDT
Civil Twilight 7:02 AM MDT 6:12 PM MDT
Nautical Twilight 6:28 AM MDT 6:46 PM MDT
Astronomical Twilight 5:55 AM MDT 7:20 PM MDT
Moon 2:19 PM MDT 12:34 AM MDT
Length of Visible Light 11h 10m
Length of Day
10h 09m
First Quarter, 61% of the Moon is Illuminated
Nov 3
First Quarter
Nov 10
Full
Nov 18
Last Quarter
Nov 24
New
Dec 2
First Quarter

Hourly Weather History & Observations

Time (MDT) Temp. Windchill Dew Point Humidity Pressure Visibility Wind Dir Wind Speed Gust Speed Precip Events Conditions
12:53 AM 21.9 °F 13.4 °F -5.1 °F 30% 30.35 in 10.0 mi West 6.9 mph - N/A   Clear
1:53 AM 25.0 °F 18.1 °F -5.1 °F 27% 30.31 in 10.0 mi WSW 5.8 mph - N/A   Clear
2:53 AM 25.0 °F 17.1 °F -2.9 °F 30% 30.30 in 10.0 mi WSW 6.9 mph - N/A   Clear
3:53 AM 26.1 °F 17.6 °F -2.9 °F 28% 30.28 in 10.0 mi WSW 8.1 mph - N/A   Clear
4:53 AM 28.0 °F 20.8 °F -2.9 °F 26% 30.26 in 10.0 mi WSW 6.9 mph - N/A   Clear
5:53 AM 30.0 °F 21.1 °F -2.0 °F 25% 30.25 in 10.0 mi West 10.4 mph - N/A   Clear
6:53 AM 27.0 °F - -0.9 °F 30% 30.27 in 10.0 mi Calm Calm - N/A   Clear
7:53 AM 28.0 °F 20.8 °F -0.0 °F 30% 30.25 in 10.0 mi WSW 6.9 mph - N/A   Clear
8:53 AM 34.0 °F 28.8 °F 1.9 °F 26% 30.21 in 10.0 mi West 5.8 mph - N/A   Clear
9:53 AM 42.1 °F 38.4 °F -4.0 °F 14% 30.17 in 10.0 mi SSW 5.8 mph - N/A   Clear
10:53 AM 46.0 °F 41.9 °F -8.0 °F 10% 30.14 in 10.0 mi South 8.1 mph 21.9 mph N/A   Clear
11:53 AM 44.1 °F 37.7 °F -2.9 °F 14% 30.13 in 10.0 mi SSW 12.7 mph 23.0 mph N/A   Clear
12:53 PM 44.1 °F 38.1 °F -0.0 °F 16% 30.09 in 10.0 mi SW 11.5 mph 21.9 mph N/A   Clear
1:53 PM 44.1 °F 36.2 °F -0.0 °F 16% 30.03 in 10.0 mi SSW 18.4 mph 25.3 mph N/A   Clear
2:53 PM 45.0 °F 39.7 °F 3.9 °F 18% 29.99 in 10.0 mi SW 10.4 mph 21.9 mph N/A   Clear
3:53 PM 41.0 °F 34.7 °F 7.0 °F 25% 29.99 in 10.0 mi SW 10.4 mph 18.4 mph N/A   Clear
4:53 PM 37.9 °F 32.1 °F 10.9 °F 33% 29.98 in 10.0 mi SW 8.1 mph - N/A   Clear
5:53 PM 34.0 °F 27.2 °F 14.0 °F 44% 29.97 in 10.0 mi SSW 8.1 mph - N/A   Clear
6:53 PM 33.1 °F 24.4 °F 15.1 °F 48% 29.99 in 10.0 mi SSW 11.5 mph 17.3 mph N/A   Clear
7:53 PM 32.0 °F 25.6 °F 14.0 °F 48% 29.97 in 10.0 mi WSW 6.9 mph - N/A   Clear
8:53 PM 30.0 °F 23.2 °F 14.0 °F 51% 29.95 in 10.0 mi WSW 6.9 mph - N/A   Clear
9:53 PM 28.9 °F 21.9 °F 12.9 °F 51% 29.90 in 10.0 mi WSW 6.9 mph - N/A   Clear
10:53 PM 30.0 °F 23.2 °F 12.0 °F 47% 29.86 in 10.0 mi WSW 6.9 mph - N/A   Clear
11:53 PM 32.0 °F 24.2 °F 12.0 °F 44% 29.84 in 10.0 mi WSW 9.2 mph - N/A   Clear